FENGYUN 1C DEB, 31041

Orbit data source: Space-Track

FENGYUN 1C DEB, 31041 is space debris in SSO originally from a launch on Mon, 10 May 1999 UTC launched from the Taiyaun Space Center, China (TSC). Fengyun 1C debris stems from the Chinese weather satellite Fengyun-1C, which was intentionally destroyed by a Chinese anti-satellite missile in 2007. This event dramatically increased the amount of space debris, with thousands of trackable fragments posing hazards to satellites and human spaceflight. The Fengyun 1C debris cloud has become a focal point in discussions about space sustainability and the need for international regulations to prevent the creation of new debris.

Loading next visibility...
Identifier
31041, 1999-025BEK
Orbit
SSO
Country
Flag of CNCN / PRC
Related business
Manufacturer
Unknown
Mission
Spacecraft
Bus & Motor
Unknown
Mass
Unknown
Launch date (UTC)
1999-05-10 (27 years ago)
Launch vehicle
Unknown
Launch site
Taiyaun Space Center, China (TSC)
Object type
Payload
Rocket body
Debris
Shape & HBR
Unknown shape, 0.1 m
Radar Cross Section
Medium (>0.1 m² and <1 m²)

Expand to show TLE details & history
Last TLE update: 2 days ago

TLE from 2 days ago
0 FENGYUN 1C DEB
1 31041U 99025BEK 26236.05319180  .00002347  00000-0  10920-2 0  9990
2 31041  99.1926 279.0971 0082951 320.6570  38.8597 14.19789374990966
Epoch: 2026-08-24T01:16Z
TLE epoch observation values (Epoch: 2026-08-24T01:16:35.771Z)
Latitude
-0.00003°
Longitude
-72.39236°
Altitude
782.618 km
Speed
7.487 km/s
True Right ascension
18h 36m 23s
True Declination
0° 00' 00"
Sunlit
Object was in full shadow at epoch
Visualization orbit readout
Latitude
Unknown
Longitude
Unknown
Altitude
Unknown
Speed
Unknown
Apparent Right ascension
Unknown
Apparent Declination
Unknown
Sunlit
N/A
Visualization observer readout
Local Sidereal Time
20:55:49
Azimuth
Unknown
Elevation
Unknown
Doppler factor
Unknown
Orbital elements
Apogee altitude
882.984 km
Perigee altitude
763.511 km
Semi-major axis
7,201.385 km
Eccentricity
0.0083
Inclination
99.1926°
RAAN
279.0971°
Arg. of periapsis
320.657°
True anomaly
39.46093°
Mean anomaly
38.8597°
Eccentric anomaly
39.15983°
Mean motion
3.55156 °/min
Orbital period
101.36 mins
BSTAR
0.001092
Loading maneuver chart data...
Computing Atmospheric mass density...

Documentation

Showing up to 5 results
|